Weather History for Annette Island, AK

Change the Weather History Date:

Monday, December 3, 2012

  Actual Average Record
Temperature  
Mean Temperature 39 °F 38 °F  
Max Temperature 42 °F 42 °F 53 °F (1997)
Min Temperature 36 °F 33 °F 8 °F (1970)
Degree Days  
Heating Degree Days 26 27  
Month to date heating degree days 82 81  
Since 1 July heating degree days 2208 2131  
Cooling Degree Days 0    
Month to date cooling degree days 0  
Year to date cooling degree days 7  
Moisture  
Dew Point 36 °F    
Average Humidity 0    
Maximum Humidity 0    
Minimum Humidity 0    
Precipitation  
Precipitation 0.20 in 0.36 in 2.48 in (1954)
Month to date precipitation 1.37 1.09  
Year to date precipitation 96.39 92.00  
Snow  
Snow T in 0.20 in 10.00 in (2001)
Month to date snowfall T 0.6  
Since 1 July snowfall T 4.2  
Snow Depth 0.00 in    
Sea Level Pressure  
Sea Level Pressure 29.36 in    
Wind  
Wind Speed 11 mph (SE)    
Max Wind Speed 20 mph    
Max Gust Speed 35 mph    
Visibility 10 miles    
Events Rain    
T = Trace of Precipitation, MM = Missing Value Source: NWS Daily Summary

Daily Weather History Graph

Daily Weather History Graph

Search for Another Location

Airport:

Trip Planner

Search our weather history database for the weather conditions in past years. The results will help you decide how hot, cold, wet, or windy it might be!

Date:

Astronomy

Dec. 03, 2012 Rise Set
Actual Time 7:51 AM AKST 3:20 PM AKST
Civil Twilight 7:07 AM AKST 4:05 PM AKST
Nautical Twilight 6:20 AM AKST 4:51 PM AKST
Astronomical Twilight 5:36 AM AKST 5:35 PM AKST
Moon 8:45 PM AKST (12/3) 10:51 AM AKST (12/3)
Length of Visible Light 8h 57m
Length of Day
7h 29m
Waning Gibbous, 77% of the Moon is Illuminated
Dec 3
Waning Gibbous
Dec 6
Last Quarter
Dec 12
New
Dec 19
First Quarter
Dec 28
Full

Hourly Weather History & Observations

Time (AKST) Temp. Windchill Dew Point Humidity Pressure Visibility Wind Dir Wind Speed Gust Speed Precip Events Conditions
12:19 AM 35.6 °F 27.5 °F 33.8 °F 93% 29.29 in 10.0 mi ESE 11.5 mph 16.1 mph 0.01 in Rain Light Rain
12:26 AM 37.4 °F 29.8 °F 35.6 °F 93% 29.29 in 10.0 mi ESE 11.5 mph 18.4 mph 0.01 in Rain Light Rain
12:38 AM 37.4 °F 28.9 °F 35.6 °F 93% 29.29 in 9.0 mi SE 13.8 mph 19.6 mph 0.01 in   Overcast
12:53 AM 36.0 °F 28.5 °F 35.1 °F 97% 29.31 in 10.0 mi SE 10.4 mph 18.4 mph 0.03 in Rain Light Rain
1:01 AM 37.4 °F 29.8 °F 35.6 °F 93% 29.30 in 10.0 mi SE 11.5 mph - 0.01 in Rain Light Rain
1:53 AM 37.9 °F 32.1 °F 36.0 °F 93% 29.31 in 10.0 mi SE 8.1 mph - 0.01 in   Mostly Cloudy
2:38 AM 37.4 °F 32.8 °F 35.6 °F 93% 29.33 in 10.0 mi South 5.8 mph - N/A   Overcast
2:53 AM 37.9 °F 30.5 °F 36.0 °F 93% 29.34 in 10.0 mi ESE 11.5 mph 19.6 mph N/A   Overcast
2:58 AM 37.4 °F 30.8 °F 35.6 °F 93% 29.33 in 10.0 mi East 9.2 mph 19.6 mph N/A   Overcast
3:08 AM 39.2 °F 35.0 °F 35.6 °F 87% 29.33 in 10.0 mi SSE 5.8 mph - N/A   Overcast
3:53 AM 37.9 °F 29.6 °F 36.0 °F 93% 29.35 in 10.0 mi ESE 13.8 mph 20.7 mph N/A   Overcast
4:03 AM 37.4 °F 30.3 °F 35.6 °F 93% 29.34 in 10.0 mi ESE 10.4 mph 19.6 mph 0.00 in Rain Light Rain
4:17 AM 37.4 °F 30.8 °F 35.6 °F 93% 29.35 in 8.0 mi ESE 9.2 mph 17.3 mph 0.00 in Rain Light Rain
4:23 AM 37.4 °F 30.8 °F 35.6 °F 93% 29.35 in 9.0 mi ESE 9.2 mph - 0.01 in Rain Light Rain
4:53 AM 37.0 °F 31.0 °F 36.0 °F 96% 29.36 in 10.0 mi ESE 8.1 mph - 0.01 in Rain Light Rain
5:53 AM 37.0 °F 29.3 °F 36.0 °F 96% 29.38 in 9.0 mi SE 11.5 mph 19.6 mph 0.04 in Rain Light Rain
6:53 AM 36.0 °F 28.0 °F 35.1 °F 97% 29.39 in 10.0 mi ESE 11.5 mph 19.6 mph 0.01 in   Overcast
7:53 AM 37.0 °F 29.8 °F 35.1 °F 93% 29.41 in 10.0 mi ESE 10.4 mph - N/A   Mostly Cloudy
8:44 AM 37.4 °F 32.8 °F 35.6 °F 93% 29.42 in 10.0 mi SSE 5.8 mph - 0.01 in   Overcast
8:53 AM 37.9 °F 32.1 °F 36.0 °F 93% 29.43 in 10.0 mi SE 8.1 mph 16.1 mph 0.01 in   Overcast
9:07 AM 37.4 °F 31.4 °F 35.6 °F 93% 29.43 in 10.0 mi SSE 8.1 mph - N/A   Overcast
9:15 AM 37.4 °F 32.8 °F 35.6 °F 93% 29.43 in 10.0 mi Variable 5.8 mph - N/A   Overcast
9:35 AM 37.4 °F 30.8 °F 35.6 °F 93% 29.44 in 10.0 mi ESE 9.2 mph - N/A   Overcast
9:43 AM 39.2 °F 32.5 °F 35.6 °F 87% 29.44 in 10.0 mi ESE 10.4 mph - N/A   Overcast
9:53 AM 39.0 °F 33.4 °F 37.0 °F 93% 29.46 in 10.0 mi SE 8.1 mph - N/A   Overcast
10:21 AM 42.8 °F 38.0 °F 35.6 °F 76% 29.45 in 10.0 mi SSE 8.1 mph - N/A   Overcast
10:53 AM 42.1 °F 37.7 °F 34.0 °F 73% 29.46 in 10.0 mi SSE 6.9 mph - N/A   Overcast
11:28 AM 41.0 °F 33.5 °F 35.6 °F 81% 29.45 in 10.0 mi SE 13.8 mph 24.2 mph 0.01 in Rain Light Rain
11:44 AM 41.0 °F 38.0 °F 35.6 °F 81% 29.45 in 10.0 mi SE 4.6 mph - 0.01 in Rain Light Rain
11:53 AM 39.0 °F 33.4 °F 36.0 °F 89% 29.46 in 10.0 mi SSE 8.1 mph - 0.01 in Rain Light Rain
12:09 PM 39.2 °F 31.2 °F 35.6 °F 87% 29.45 in 7.0 mi ESE 13.8 mph 21.9 mph 0.01 in Rain Light Rain
12:53 PM 37.9 °F 30.5 °F 36.0 °F 93% 29.44 in 9.0 mi ESE 11.5 mph 23.0 mph 0.07 in Rain Light Rain
1:25 PM 39.2 °F 29.8 °F 35.6 °F 87% 29.43 in 10.0 mi ESE 18.4 mph 26.5 mph 0.01 in Rain Light Rain
1:53 PM 39.0 °F 31.4 °F 36.0 °F 89% 29.43 in 10.0 mi ESE 12.7 mph 25.3 mph 0.01 in Rain Light Rain
2:32 PM 39.2 °F 31.6 °F 35.6 °F 87% 29.41 in 10.0 mi ESE 12.7 mph 25.3 mph 0.00 in   Overcast
2:53 PM 39.0 °F 30.6 °F 36.0 °F 89% 29.40 in 10.0 mi ESE 15.0 mph 21.9 mph 0.00 in Rain Light Rain
3:53 PM 39.9 °F 31.8 °F 35.1 °F 83% 29.36 in 10.0 mi ESE 15.0 mph 25.3 mph 0.00 in Rain Light Rain
4:53 PM 37.9 °F 30.5 °F 35.1 °F 89% 29.32 in 10.0 mi ESE 11.5 mph 23.0 mph 0.04 in Rain Light Rain
5:53 PM 37.9 °F 28.9 °F 35.1 °F 89% 29.31 in 10.0 mi ESE 16.1 mph 24.2 mph 0.02 in Rain Light Rain
6:53 PM 39.0 °F 30.6 °F 35.1 °F 86% 29.29 in 10.0 mi ESE 15.0 mph 26.5 mph 0.00 in Rain Light Rain
7:51 PM 37.4 °F 28.5 °F 35.6 °F 93% 29.27 in 10.0 mi ESE 15.0 mph 25.3 mph 0.02 in Rain Light Rain
7:53 PM 37.9 °F 28.9 °F 35.1 °F 89% 29.28 in 10.0 mi ESE 16.1 mph 25.3 mph 0.02 in Rain Light Rain
8:25 PM 37.4 °F 28.5 °F 35.6 °F 93% 29.26 in 10.0 mi ESE 15.0 mph 26.5 mph 0.05 in Rain Light Rain
8:53 PM 37.9 °F 28.9 °F 36.0 °F 93% 29.26 in 10.0 mi ESE 16.1 mph 23.0 mph 0.06 in Rain Light Rain
9:53 PM 37.0 °F 27.0 °F 35.1 °F 93% 29.24 in 10.0 mi ESE 18.4 mph 24.2 mph 0.02 in Rain Light Rain
10:53 PM 37.9 °F 30.5 °F 35.1 °F 89% 29.21 in 8.0 mi ESE 11.5 mph 18.4 mph 0.10 in Rain Rain
11:53 PM 37.9 °F 32.1 °F 36.0 °F 93% 29.19 in 6.0 mi SE 8.1 mph - 0.05 in Rain Rain